Wind_Speed
35 35 34 34 33 33 33 33 34 34 33 33 33 33 33 33 33 32 32 32 31 30 29 29 29 30 31 31 32 32 33 33 33 33 33 33 32 33
36 35 34 34 34 34 34 34 34 33 33 33 34 34 33 33 33 33 32 32 32 31 30 30 30 30 31 32 32 32 33 32 32 32 32 32 31 31
37 36 36 35 34 34 34 34 34 34 34 34 34 34 34 33 33 33 32 33 32 32 31 31 31 31 32 32 32 32 32 31 31 31 30 30 30 30
37 37 37 36 35 34 34 34 34 34 34 34 34 34 34 34 33 33 33 33 32 32 32 31 31 32 32 32 32 32 31 30 30 29 29 29 28 28
37 38 37 36 35 34 34 34 33 34 34 34 34 34 35 35 34 34 34 34 33 32 32 31 32 32 31 31 31 31 30 29 28 28 27 27 27 27
37 37 36 36 35 35 35 35 34 34 34 34 34 34 34 34 33 33 33 33 32 31 31 32 32 32 31 30 30 30 29 28 27 27 26 26 26 27
38 37 37 36 35 36 36 35 35 35 35 34 33 32 32 32 32 32 32 31 31 31 31 31 31 31 30 30 29 29 28 27 27 26 26 25 26 26
39 38 37 36 37 36 36 35 35 34 34 33 33 33 32 32 32 32 31 30 30 31 30 29 29 29 29 28 28 28 27 26 26 25 25 24 24 24
40 39 38 38 38 37 36 36 35 35 34 34 33 33 33 31 30 30 30 30 30 29 29 28 28 28 28 27 28 27 27 26 25 24 24 24 24 24
40 39 38 38 38 36 36 35 35 34 34 33 33 33 31 30 29 29 29 29 28 28 28 28 27 27 26 26 26 26 25 24 24 23 24 23 23 23
39 39 38 37 37 37 36 35 34 34 33 32 32 32 31 30 29 28 28 27 26 26 26 26 26 26 25 24 24 24 23 23 23 22 22 22 21 21
39 39 39 38 37 37 35 34 34 33 33 33 32 31 31 30 29 28 27 25 24 24 25 25 24 24 23 22 23 23 23 22 22 21 20 20 20 20
38 38 37 38 37 36 35 34 33 33 33 33 32 31 30 29 28 27 25 24 24 24 24 23 23 23 23 23 22 22 22 21 20 19 18 18 18 18
38 37 37 36 36 36 35 35 34 33 32 32 31 30 29 27 25 24 23 23 23 23 22 22 22 23 23 23 21 20 20 19 19 17 17 17 17 17
37 37 36 36 36 36 36 35 33 32 31 30 29 28 27 25 24 23 23 22 22 22 22 21 22 22 22 21 20 19 19 19 18 17 17 17 17 17
36 35 35 36 36 35 35 34 32 31 31 29 28 26 25 24 24 24 23 22 21 21 21 21 21 21 21 20 19 19 19 18 18 17 15 15 16 15
34 34 33 34 34 35 35 34 32 32 30 29 28 26 24 24 24 24 23 22 20 20 20 20 20 19 19 19 18 18 18 17 17 16 16 15 14 14
33 33 33 33 33 33 33 32 32 31 30 29 27 25 25 24 24 24 23 21 20 19 19 19 18 18 19 18 18 17 16 16 15 15 15 14 13 13
32 31 31 31 31 31 31 31 31 30 29 28 27 26 25 24 23 23 22 21 20 19 18 17 17 17 17 17 16 15 15 14 14 13 13 13 13 13
30 30 30 30 30 30 30 30 30 29 28 28 27 26 25 24 23 23 22 22 21 20 18 17 16 16 16 16 15 14 13 13 12 12 12 12 12 12
29 29 30 29 29 29 29 29 29 28 28 27 27 26 26 25 23 23 22 22 21 20 18 17 16 16 16 15 13 13 12 12 11 11 11 10 10 10
28 28 28 28 28 27 27 27 28 28 27 27 26 26 26 25 23 22 21 21 20 19 18 18 17 16 15 14 13 12 11 11 10 10 10 9 10 10
28 28 27 27 27 27 27 27 26 26 26 26 26 26 25 24 23 22 22 21 20 19 18 18 17 16 14 12 12 11 10 10 9 9 9 9 9 9
Wind_Direction
273 274 275 277 279 280 281 283 286 287 289 292 295 297 298 300 301 301 302 303 302 300 299 298 298 298 298 297 296 298 298 296 293 290 289 288 286 285
272 273 276 278 279 280 282 283 285 287 289 292 294 295 297 299 300 301 300 301 302 301 299 299 299 299 299 299 300 300 300 297 297 294 290 288 288 286
270 272 275 277 278 280 282 284 285 286 288 291 293 295 296 298 299 300 300 300 300 300 300 299 299 299 300 302 301 301 301 299 298 295 292 290 289 287
270 272 274 275 277 278 281 283 284 286 289 291 292 292 294 296 298 297 298 299 299 299 299 299 299 300 301 302 302 303 303 301 300 298 295 292 291 289
270 271 273 274 277 279 280 282 284 286 288 290 292 292 293 294 296 296 295 297 297 297 297 297 298 300 302 304 305 304 304 303 302 299 296 293 292 291
269 271 272 273 275 277 279 280 282 284 286 289 292 292 293 294 295 295 295 295 296 296 296 297 298 300 301 303 304 305 304 304 303 301 298 294 293 293
267 269 270 271 273 275 277 278 279 282 284 287 289 291 292 293 294 295 295 296 296 297 297 297 298 300 302 303 305 306 305 304 303 302 299 295 294 295
266 267 268 270 271 273 275 276 278 280 282 284 287 289 291 292 294 294 295 295 296 297 298 298 299 300 302 304 305 306 305 304 305 303 302 299 297 297
265 265 267 268 270 271 272 273 275 278 280 282 284 286 290 292 293 294 295 296 297 298 299 299 299 300 301 302 303 304 303 303 304 303 302 300 299 300
265 265 266 266 268 269 270 271 273 275 278 280 282 286 288 290 291 292 294 296 297 299 300 300 300 300 300 301 302 304 304 304 303 303 304 303 302 302
264 264 264 265 265 266 267 269 270 273 275 278 282 284 285 286 288 291 295 296 297 298 301 302 302 301 301 301 303 304 305 305 304 304 305 306 305 305
263 263 263 264 264 263 265 267 267 270 272 275 279 280 282 284 287 289 292 294 295 297 300 302 304 305 305 304 305 306 306 307 306 306 308 308 306 306
262 262 262 262 262 262 264 266 268 269 270 273 275 277 280 282 284 285 287 291 294 296 299 302 305 307 307 307 306 305 307 307 307 306 306 308 308 308
262 262 260 260 261 261 262 265 267 269 269 270 272 274 277 279 279 280 284 289 293 295 298 300 304 307 308 308 307 306 307 307 308 306 306 308 310 312
261 261 261 259 259 260 261 264 266 266 267 267 269 272 273 274 275 278 282 285 291 295 297 299 302 305 308 309 309 307 307 309 309 307 306 308 310 310
260 260 260 259 259 259 260 262 263 263 263 264 266 267 268 272 273 276 280 283 287 292 295 297 300 302 305 307 309 308 308 308 308 308 307 308 308 309
259 259 260 260 259 259 259 259 260 260 260 260 261 262 265 268 271 273 277 280 284 288 293 295 298 300 303 307 309 308 308 308 307 307 309 310 310 310
260 259 258 259 259 258 257 257 258 258 257 256 256 258 262 266 268 271 273 275 279 283 288 291 294 297 300 305 308 309 309 309 308 309 311 310 312 313
258 257 257 257 257 257 256 255 255 254 254 252 253 257 260 264 266 267 269 271 275 279 283 286 290 294 297 302 306 309 311 312 313 311 310 309 314 317
257 256 256 255 255 255 254 253 252 251 251 251 251 254 258 263 264 266 267 269 271 275 277 282 288 293 296 300 302 304 308 310 313 313 312 314 317 319
257 256 254 253 252 253 253 251 250 250 249 249 250 253 256 259 262 264 266 267 267 269 271 276 283 288 292 296 297 299 300 303 306 310 311 313 316 318
257 254 253 251 250 250 250 250 251 249 248 249 251 253 255 256 258 259 261 262 264 264 266 272 277 282 286 288 292 296 297 300 301 306 308 312 316 318
254 252 251 249 249 249 250 251 251 249 247 248 250 251 251 252 255 255 256 258 260 261 264 268 273 277 279 280 284 290 295 300 303 305 308 314 321 326
Height
5725 5725 5724 5723 5722 5721 5719 5718 5716 5714 5712 5709 5705 5702 5698 5695 5691 5687 5682 5678 5673 5668 5664 5661 5658 5655 5652 5649 5646 5642 5639 5635 5633 5630 5628 5625 5623 5621
5717 5716 5716 5715 5714 5713 5711 5710 5708 5706 5704 5701 5698 5694 5691 5687 5683 5679 5675 5670 5666 5662 5658 5655 5652 5649 5645 5642 5638 5634 5630 5627 5623 5620 5618 5616 5614 5612
5707 5707 5706 5706 5705 5704 5703 5701 5699 5697 5696 5693 5690 5687 5683 5680 5676 5672 5667 5663 5659 5655 5652 5648 5645 5642 5638 5634 5631 5627 5623 5619 5615 5612 5609 5607 5605 5604
5698 5697 5697 5697 5696 5696 5694 5693 5691 5689 5687 5685 5682 5679 5676 5672 5668 5664 5660 5656 5653 5649 5645 5641 5638 5634 5630 5627 5623 5619 5615 5611 5607 5604 5601 5599 5597 5595
5688 5688 5688 5688 5687 5687 5685 5684 5683 5681 5679 5676 5674 5671 5668 5664 5660 5657 5653 5649 5645 5642 5638 5634 5630 5627 5623 5619 5615 5611 5607 5603 5600 5596 5594 5591 5590 5588
5679 5679 5679 5678 5678 5677 5676 5675 5674 5672 5670 5668 5666 5663 5659 5656 5652 5649 5645 5642 5638 5635 5631 5627 5623 5620 5616 5612 5608 5604 5600 5596 5593 5590 5587 5584 5582 5580
5669 5669 5669 5669 5668 5667 5667 5666 5665 5663 5661 5659 5657 5654 5651 5648 5644 5641 5638 5634 5631 5627 5624 5620 5617 5613 5609 5606 5601 5597 5593 5590 5586 5583 5580 5577 5575 5573
5658 5658 5659 5659 5658 5658 5657 5656 5655 5654 5653 5651 5649 5646 5643 5640 5636 5633 5630 5627 5624 5621 5617 5613 5610 5606 5602 5599 5595 5591 5587 5584 5580 5577 5573 5571 5568 5566
5647 5647 5648 5648 5648 5648 5647 5646 5646 5644 5643 5642 5640 5637 5635 5632 5629 5626 5622 5619 5616 5612 5609 5606 5603 5599 5596 5592 5588 5585 5581 5577 5574 5571 5567 5564 5562 5559
5635 5636 5637 5637 5637 5637 5637 5637 5636 5635 5635 5633 5632 5629 5627 5624 5621 5618 5615 5612 5608 5605 5602 5599 5596 5593 5589 5585 5582 5578 5575 5571 5568 5565 5562 5559 5556 5553
5624 5625 5626 5626 5627 5627 5627 5627 5626 5626 5624 5624 5622 5621 5618 5616 5613 5610 5608 5605 5602 5599 5596 5593 5589 5586 5583 5580 5576 5573 5569 5566 5562 5559 5556 5553 5550 5548
5613 5614 5615 5615 5616 5616 5616 5616 5617 5616 5615 5615 5613 5612 5610 5607 5605 5603 5600 5598 5596 5593 5590 5587 5583 5580 5578 5575 5571 5567 5564 5560 5557 5554 5551 5548 5546 5543
5602 5603 5604 5604 5605 5605 5606 5606 5606 5606 5606 5605 5604 5603 5601 5599 5597 5595 5593 5591 5589 5587 5584 5581 5578 5574 5571 5569 5566 5562 5559 5555 5552 5549 5547 5544 5542 5539
5591 5591 5592 5593 5594 5595 5596 5596 5595 5595 5595 5595 5595 5594 5593 5591 5590 5588 5587 5585 5583 5581 5578 5575 5573 5569 5566 5563 5561 5558 5554 5551 5548 5545 5543 5541 5538 5535
5580 5580 5581 5582 5583 5584 5585 5585 5585 5585 5586 5586 5586 5585 5584 5583 5582 5582 5580 5579 5577 5575 5573 5570 5567 5564 5561 5558 5556 5553 5550 5546 5543 5541 5539 5537 5534 5532
5569 5570 5571 5572 5573 5573 5574 5575 5575 5576 5577 5577 5577 5577 5576 5576 5576 5575 5574 5573 5571 5570 5567 5565 5562 5560 5557 5554 5551 5548 5545 5542 5540 5537 5535 5533 5531 5528
5558 5559 5560 5562 5563 5564 5564 5565 5566 5567 5568 5568 5569 5569 5569 5569 5569 5568 5567 5566 5565 5564 5562 5560 5558 5555 5553 5550 5547 5544 5541 5539 5536 5534 5532 5530 5527 5525
5547 5549 5550 5551 5553 5554 5555 5556 5557 5558 5559 5560 5561 5562 5562 5562 5562 5561 5561 5560 5559 5558 5556 5555 5553 5552 5550 5547 5544 5541 5538 5536 5533 5531 5529 5527 5525 5523
5537 5538 5540 5541 5543 5544 5545 5547 5548 5549 5551 5552 5553 5554 5555 5555 5555 5554 5554 5554 5553 5552 5551 5550 5549 5547 5545 5543 5541 5538 5535 5533 5531 5528 5526 5524 5522 5520
5527 5529 5530 5532 5533 5535 5536 5537 5539 5541 5542 5544 5545 5546 5547 5548 5548 5548 5547 5547 5547 5547 5546 5545 5544 5543 5541 5539 5537 5535 5533 5531 5529 5527 5524 5522 5520 5518
5518 5519 5521 5522 5524 5526 5527 5529 5531 5533 5534 5536 5537 5538 5539 5540 5540 5541 5541 5541 5541 5541 5541 5540 5539 5538 5537 5535 5534 5532 5530 5529 5527 5525 5523 5521 5519 5517
5509 5510 5512 5513 5515 5517 5519 5521 5523 5524 5526 5528 5529 5531 5532 5533 5534 5534 5534 5534 5535 5535 5535 5535 5535 5534 5533 5532 5530 5529 5528 5526 5525 5523 5521 5519 5518 5516
5500 5501 5503 5505 5507 5509 5511 5513 5515 5516 5518 5520 5522 5523 5524 5526 5526 5527 5528 5528 5529 5529 5530 5530 5530 5530 5529 5528 5527 5526 5525 5523 5522 5521 5520 5518 5516 5514